Location: Sungai Igah
(2.7333°N, 114.2500°E)
Time: 21:01:03
(UTC+00:00)

Maqsat-H - Pass Details

Date: 14 June 2021
Orbit: 577 x 26396 km, 7.6° (Epoch: 25 July)

Event Time Altitude Azimuth Distance (km) Brightness Sun altitude
Rises 12:06:45 0° 260° (W) 7,226 7.8 -22.4°
Reaches altitude 10° 12:14:02 10° 250° (WSW) 4,095 6.3 -24.0°
Enters shadow 12:20:47 28° 193° (SSW) 1,495 3.3 -25.5°
